This demonstration page uses our WeatherBlox Daily Observations layout. Learn more.

Left ArrowRight Arrow

Hourly Observations for May 16, 2015

Temp ( °F °C ) Dew Point ( °F °C ) Humidity (%) Winds ( mph kmh ) Pressure ( in mb ) Visibility ( mi km ) Precip ( " mm )
12:53 am 00:53 Clear 56 13.3 50 10 81 81 NNW 3 6 29.87 1011 10 16 0.00 0.00
1:53 am 01:53 Clear 57 13.9 50 10 78 78 NW 5 7 29.87 1012 10 16 0.00 0.00
2:53 am 02:53 Clear 54 12.2 48 8.9 80 80 Calm 29.88 1012 10 16 0.00 0.00
3:53 am 03:53 Mostly Cloudy 54 12.2 49 9.4 83 83 SSW 3 6 29.90 1012 10 16 0.00 0.00
4:53 am 04:53 Mostly Cloudy 54 12.2 48 8.9 80 80 Calm 29.89 1012 10 16 0.00 0.00
5:53 am 05:53 Mostly Cloudy 52 11.1 47 8.3 83 83 Calm 29.91 1013 10 16 0.00 0.00
6:53 am 06:53 Partly Cloudy 55 12.8 49 9.4 80 80 Calm 29.93 1014 10 16 0.00 0.00
7:53 am 07:53 Sunny 59 15 49 9.4 69 69 Calm 29.94 1014 10 16 0.00 0.00
8:53 am 08:53 Sunny 62 16.7 49 9.4 62 62 Calm 29.94 1014 10 16 0.00 0.00
9:53 am 09:53 Sunny 65 18.3 47 8.3 52 52 Calm 29.94 1014 10 16 0.00 0.00
10:53 am 10:53 Sunny 68 20 46 7.8 45 45 W 5 7 29.94 1014 10 16 0.00 0.00
11:53 am 11:53 Partly Cloudy 70 21.1 45 7.2 41 41 Calm 29.93 1014 10 16 0.00 0.00
12:53 pm 12:53 Sunny 72 22.2 43 6.1 35 35 VRB 6 9 29.92 1013 10 16 0.00 0.00
1:53 pm 13:53 Sunny 75 23.9 44 6.7 33 33 S 10 17 29.91 1013 10 16 0.00 0.00
2:53 pm 14:53 Mostly Sunny 75 23.9 46 7.8 36 36 VRB 7 11 29.89 1012 10 16 0.00 0.00
3:53 pm 15:53 Mostly Sunny 77 25 46 7.8 33 33 S 9 15 29.88 1012 10 16 0.00 0.00
4:53 pm 16:53 Mostly Sunny 75 23.9 45 7.2 34 34 SSW 8 13 29.86 1011 10 16 0.00 0.00
5:53 pm 17:53 Sunny 75 23.9 46 7.8 36 36 S 8 13 29.86 1011 10 16 0.00 0.00
6:53 pm 18:53 Sunny 75 23.9 47 8.3 37 37 S 10 17 29.86 1011 10 16 0.00 0.00
7:53 pm 19:53 Partly Cloudy 73 22.8 48 8.9 41 41 SSE 6 9 29.87 1012 10 16 0.00 0.00
8:53 pm 20:53 Cloudy 71 21.7 48 8.9 44 44 SSE 6 9 29.88 1012 10 16 0.00 0.00
9:53 pm 21:53 Mostly Clear 68 20 50 10 53 53 SW 3 6 29.90 1013 10 16 0.00 0.00
10:53 pm 22:53 Partly Cloudy 65 18.3 50 10 59 59 Calm 29.91 1013 10 16 0.00 0.00
11:53 pm 23:53 Cloudy with Light Rain 62 16.7 52 11.1 70 70 W 9 15 29.93 1014 7 11 0.11 2.79

Powered by AerisWeather